CW6037 Weather Reports


time (UTC)temp
C
wind
direction
speed
KPH
gust
KPH
rain 1hr
cm
rain 24hr
cm
rain mn
cm
humidity
%
barometer
mb
20260504110239 1 166 0.0 1.6 0.00 0.00 0.00 90 1012.2
20260504100223 1 166 0.0 0.0 0.00 0.00 0.00 88 1012.1
20260504081700 3 166 0.0 4.8 0.00 0.00 0.00 80 1012.3
20260504081402 4 166 0.0 1.6 0.00 0.00 0.00 78 1012.2
20260504081254 4 166 0.0 4.8 0.00 0.00 0.00 79 1012.3
20260504080158 5 166 0.0 1.6 0.00 0.00 0.00 77 1012.3
20260504070201 5 200 0.0 4.8 0.00 0.00 0.00 77 1012.2
20260504060152 3 229 1.6 6.4 0.00 0.00 0.00 84 1012.0
20260504050640 3 271 0.0 3.2 0.00 0.00 0.00 85 1012.0
20260504050140 3 271 0.0 3.2 0.00 0.00 0.00 84 1012.0
20260504045640 3 271 0.0 3.2 0.00 0.00 0.00 84 1011.9
20260504045141 3 271 0.0 1.6 0.00 0.00 0.00 84 1012.0
20260504044641 3 271 0.0 1.6 0.00 0.00 0.00 84 1011.9
20260504044141 3 271 0.0 1.6 0.00 0.00 0.00 84 1011.9
20260504043640 3 271 0.0 1.6 0.00 0.00 0.00 84 1012.0
20260504043141 3 271 0.0 1.6 0.00 0.00 0.00 84 1011.9
20260504042640 3 271 0.0 1.6 0.00 0.00 0.00 83 1011.8
20260504042140 3 271 0.0 3.2 0.00 0.00 0.00 83 1011.8
20260504041640 3 271 0.0 3.2 0.00 0.00 0.00 83 1011.7
20260504041402 3 271 0.0 1.6 0.00 0.00 0.00 84 1011.7
20260504040641 3 271 0.0 1.6 0.00 0.00 0.00 84 1011.7
20260504040140 3 271 0.0 1.6 0.00 0.00 0.00 83 1011.6
20260504035638 3 271 0.0 1.6 0.00 0.00 0.00 83 1011.6
20260504035136 3 271 0.0 1.6 0.00 0.00 0.00 83 1011.7
20260504034629 3 271 0.0 1.6 0.00 0.00 0.00 83 1011.7
20260504034127 4 271 0.0 1.6 0.00 0.00 0.00 83 1011.7
20260504033625 4 271 0.0 1.6 0.00 0.00 0.00 82 1011.7
20260504033127 4 271 0.0 1.6 0.00 0.00 0.00 82 1011.7
20260504032625 4 271 0.0 1.6 0.00 0.00 0.00 83 1011.6
20260504032125 4 271 0.0 1.6 0.00 0.00 0.00 82 1011.6
20260504031625 4 271 0.0 1.6 0.00 0.00 0.00 81 1011.7
20260504031123 4 271 0.0 1.6 0.00 0.00 0.00 80 1011.7
20260504030623 4 271 0.0 1.6 0.00 0.00 0.00 80 1011.7
20260504030121 4 271 0.0 1.6 0.00 0.00 0.00 79 1011.7
20260504025621 4 271 0.0 1.6 0.00 0.00 0.00 79 1011.6
20260504025344 5 271 0.0 1.6 0.00 0.00 0.00 79 1011.6
20260504024624 5 271 0.0 3.2 0.00 0.00 0.00 79 1011.6
20260504024119 5 271 0.0 3.2 0.00 0.00 0.00 78 1011.7
20260504023617 5 271 0.0 3.2 0.00 0.00 0.00 78 1011.6
20260504023115 5 271 0.0 1.6 0.00 0.00 0.00 77 1011.6
20260504022615 5 271 0.0 1.6 0.00 0.00 0.00 77 1011.7
20260504022341 5 271 0.0 3.2 0.00 0.00 0.00 75 1011.7
20260504021611 5 271 0.0 3.2 0.00 0.00 0.00 75 1011.6
20260504021111 5 271 0.0 3.2 0.00 0.00 0.00 74 1011.7
20260504020607 5 271 0.0 3.2 0.00 0.00 0.00 73 1011.6
20260504020328 6 271 0.0 1.6 0.00 0.00 0.00 72 1011.7
20260504015604 6 271 0.0 1.6 0.00 0.00 0.00 71 1011.7
20260504015101 6 271 0.0 3.2 0.00 0.00 0.00 71 1011.6
20260504014558 6 271 0.0 3.2 0.00 0.00 0.00 69 1011.5
20260504014330 6 271 0.0 1.6 0.00 0.00 0.00 69 1011.5
20260504013559 6 271 0.0 0.0 0.00 0.00 0.00 67 1011.4
20260504013057 7 271 0.0 3.2 0.00 0.00 0.00 67 1011.4
20260504012555 7 271 0.0 3.2 0.00 0.00 0.00 66 1011.3
20260504012312 7 271 0.0 1.6 0.00 0.00 0.00 66 1011.3
20260504011555 7 271 0.0 1.6 0.00 0.00 0.00 65 1011.3
20260504011055 8 271 0.0 1.6 0.00 0.00 0.00 64 1011.1
20260504010557 8 271 0.0 1.6 0.00 0.00 0.00 63 1010.9
20260504010053 8 271 0.0 1.6 0.00 0.00 0.00 62 1011.0
20260504005556 8 271 0.0 1.6 0.00 0.00 0.00 62 1011.1
20260504005055 9 271 0.0 3.2 0.00 0.00 0.00 59 1011.0
20260504004552 9 271 0.0 3.2 0.00 0.00 0.00 58 1011.0
20260504004317 10 271 0.0 0.0 0.00 0.00 0.00 57 1011.0
20260504003554 10 271 0.0 1.6 0.00 0.00 0.00 57 1011.1
20260504003049 10 271 0.0 1.6 0.00 0.00 0.00 56 1010.9
20260504002549 10 271 0.0 0.0 0.00 0.00 0.00 55 1010.8
20260504002047 11 271 0.0 1.6 0.00 0.00 0.00 54 1010.7
20260504001547 11 271 1.6 4.8 0.00 0.00 0.00 52 1010.7
20260504001047 11 271 1.6 4.8 0.00 0.00 0.00 51 1010.7
20260504000545 11 271 0.0 1.6 0.00 0.00 0.00 50 1010.7
20260504000307 11 271 0.0 3.2 0.00 0.00 0.00 49 1010.6
20260503235541 12 271 0.0 3.2 0.00 0.00 0.00 48 1010.6
20260503235304 12 271 1.6 4.8 0.00 0.00 0.00 47 1010.6
20260503234532 12 271 1.6 6.4 0.00 0.00 0.00 46 1010.6
20260503234038 12 272 1.6 9.7 0.00 0.00 0.00 45 1010.5
20260503233535 12 272 1.6 9.7 0.00 0.00 0.00 45 1010.5
20260503233033 12 323 3.2 14.5 0.00 0.00 0.00 44 1010.5
20260503232534 12 252 4.8 14.5 0.00 0.00 0.00 44 1010.5
20260503232250 13 306 4.8 14.5 0.00 0.00 0.00 44 1010.5
20260503231533 13 271 4.8 16.1 0.00 0.00 0.00 44 1010.5
20260503231031 13 287 8.0 33.8 0.00 0.00 0.00 44 1010.5
20260503230800 13 298 8.0 33.8 0.00 0.00 0.00 42 1010.5
20260503230031 13 258 6.4 14.5 0.00 0.00 0.00 45 1010.5
20260503225531 13 344 8.0 20.9 0.00 0.00 0.00 43 1010.5
20260503225033 13 284 8.0 20.9 0.00 0.00 0.00 43 1010.5
20260503224533 13 307 4.8 17.7 0.00 0.00 0.00 45 1010.5
20260503224030 13 288 3.2 9.7 0.00 0.00 0.00 44 1010.5
20260503223531 13 266 3.2 20.9 0.00 0.00 0.00 43 1010.3
20260503223032 13 295 4.8 20.9 0.00 0.00 0.00 43 1010.4
20260503222531 13 257 6.4 22.5 0.00 0.00 0.00 42 1010.4
20260503222033 14 300 6.4 22.5 0.00 0.00 0.00 42 1010.5
20260503221533 14 36 4.8 16.1 0.00 0.00 0.00 42 1010.5
20260503221300 13 260 6.4 17.7 0.00 0.00 0.00 44 1010.5
20260503220531 14 317 9.7 17.7 0.00 0.00 0.00 42 1010.4
20260503220029 14 257 8.0 17.7 0.00 0.00 0.00 42 1010.5
20260503215528 14 272 6.4 24.1 0.00 0.00 0.00 42 1010.6
20260503215028 14 289 8.0 24.1 0.00 0.00 0.00 42 1010.6
20260503214528 14 339 6.4 19.3 0.00 0.00 0.00 41 1010.5
20260503214029 14 290 8.0 19.3 0.00 0.00 0.00 41 1010.5
20260503213529 15 319 6.4 19.3 0.00 0.00 0.00 39 1010.4
20260503213029 14 302 6.4 17.7 0.00 0.00 0.00 40 1010.5
20260503212528 14 280 9.7 25.7 0.00 0.00 0.00 39 1010.4
20260503212028 14 97 9.7 25.7 0.00 0.00 0.00 39 1010.5
20260503211531 14 271 6.4 19.3 0.00 0.00 0.00 39 1010.3
20260503211029 13 5 6.4 19.3 0.00 0.00 0.00 38 1010.3
20260503210526 14 275 6.4 20.9 0.00 0.00 0.00 38 1010.4
20260503210504 14 15 6.4 20.9 0.00 0.00 0.00 37 1010.4
20260503205524 15 276 8.0 30.6 0.00 0.00 0.00 37 1010.2
20260503205233 15 277 14.5 37.0 0.00 0.00 0.00 36 1010.0
20260503205117 15 32 11.3 30.6 0.00 0.00 0.00 40 1010.0
20260503204022 15 275 11.3 37.0 0.00 0.00 0.00 37 1010.2
20260503203523 15 304 8.0 25.7 0.00 0.00 0.00 37 1010.2
20260503203023 15 261 8.0 25.7 0.00 0.00 0.00 38 1010.2
20260503202524 15 282 8.0 22.5 0.00 0.00 0.00 37 1010.2
20260503202237 15 277 6.4 20.9 0.00 0.00 0.00 39 1010.0
20260503201514 15 275 8.0 24.1 0.00 0.00 0.00 37 1010.2
20260503201017 15 292 11.3 24.1 0.00 0.00 0.00 38 1010.0
20260503200514 15 249 11.3 25.7 0.00 0.00 0.00 36 1010.2
20260503200014 15 239 9.7 25.7 0.00 0.00 0.00 37 1010.3
20260503195514 15 273 6.4 17.7 0.00 0.00 0.00 36 1010.4
20260503195014 15 272 6.4 24.1 0.00 0.00 0.00 36 1010.4
20260503194514 15 269 9.7 24.1 0.00 0.00 0.00 36 1010.4
20260503194014 15 306 11.3 29.0 0.00 0.00 0.00 36 1010.5
20260503193514 14 266 11.3 29.0 0.00 0.00 0.00 36 1010.5
20260503193014 14 251 9.7 27.4 0.00 0.00 0.00 37 1010.6
20260503192514 14 280 11.3 27.4 0.00 0.00 0.00 36 1010.9
20260503192231 14 246 12.9 25.7 0.00 0.00 0.00 40 1010.8
20260503191514 14 305 11.3 25.7 0.00 0.00 0.00 38 1011.0
20260503191016 14 255 4.8 20.9 0.00 0.00 0.00 41 1011.2
20260503190732 13 217 6.4 20.9 0.00 0.00 0.00 41 1011.1
20260503190010 13 9 8.0 25.7 0.00 0.00 0.00 41 1011.3
20260503185510 14 248 8.0 25.7 0.00 0.00 0.00 38 1011.5
20260503185012 13 259 8.0 20.9 0.00 0.00 0.00 42 1011.6
20260503184510 13 340 8.0 24.1 0.00 0.00 0.00 42 1011.5
20260503184235 13 355 8.0 24.1 0.00 0.00 0.00 42 1011.7
20260503183511 13 258 6.4 20.9 0.00 0.00 0.00 42 1011.8
20260503183010 13 309 6.4 16.1 0.00 0.00 0.00 44 1011.8
20260503182510 12 186 9.7 25.7 0.00 0.00 0.00 43 1011.7
20260503182009 12 281 9.7 25.7 0.00 0.00 0.00 39 1011.8
20260503181512 13 257 8.0 19.3 0.00 0.00 0.00 39 1011.8
20260503181010 13 273 8.0 19.3 0.00 0.00 0.00 43 1011.9
20260503180510 12 292 9.7 22.5 0.00 0.00 0.00 42 1012.0
20260503180010 12 323 9.7 22.5 0.00 0.00 0.00 41 1011.9
20260503175512 12 286 9.7 30.6 0.00 0.00 0.00 43 1012.0
20260503175012 12 259 12.9 30.6 0.00 0.00 0.00 45 1011.9
20260503174510 11 334 14.5 30.6 0.00 0.00 0.00 39 1012.1
20260503174010 11 275 12.9 30.6 0.00 0.00 0.00 42 1012.0
20260503173510 11 251 8.0 27.4 0.00 0.00 0.00 41 1012.1
20260503173011 11 303 6.4 20.9 0.00 0.00 0.00 43 1012.1
20260503172508 11 286 4.8 24.1 0.00 0.00 0.00 43 1012.1
20260503172226 11 80 9.7 29.0 0.00 0.00 0.00 47 1012.2
20260503171508 11 300 12.9 33.8 0.00 0.00 0.00 43 1012.2
20260503171009 11 267 8.0 33.8 0.00 0.00 0.00 43 1012.2
20260503170508 11 269 8.0 22.5 0.00 0.00 0.00 45 1012.3
20260503150731 8 327 6.4 25.7 0.00 0.00 0.00 48 1012.8
20260503130955 6 275 3.2 14.5 0.00 0.03 0.00 69 1013.2
20260503130713 5 24 3.2 14.5 0.00 0.03 0.00 72 1013.3